カタログに戻る

STARLINK-3181

運用中通信VLEO
NORAD 51461·PAYLOAD·🇺🇸 United States

打ち上げ Feb 3, 2022 から Cape Canaveral Space Force Station

Loading…

次のパス (今後24時間)

TLE

最新Source: CelesTrak SupGP

元期: Sep 14, 2026, 21:30 UTC

1 51461C 22010F   26257.89631944 -.00022134  00000+0 -63307-3 0  2570
2 51461  53.1573 141.6926 0001305  81.8945 192.6886 15.35419770    19

AllMySatでSTARLINK-3181をリアルタイム追跡

Download on the App Store